Location: Powder Track
(41.8531°N, 72.3584°W)
Time: 13:05:30
(UTC+00:00)

Vanguard 2 Rocket - Visible Passes

Search period start: 02 August 2021 00:00
Search period end: 12 August 2021 00:00
Orbit: 555 x 3325 km, 32.9° (Epoch: 01 August)

Date Brightness Start Highest point End Pass type
(mag) Time Alt. Az. Time Alt. Az. Time Alt. Az.
07 Aug 8.9 08:29:21 10° SSW 08:33:08 14° SSE 08:36:10 10° SE visible
08 Aug 9.3 07:32:26 12° SSE 07:33:23 12° SSE 07:36:05 10° SE visible
09 Aug 8.5 08:41:45 12° SSW 08:47:04 22° SSE 08:51:18 10° ESE visible
10 Aug 8.9 07:45:14 19° S 07:47:20 20° SSE 07:52:02 10° ESE visible
11 Aug 9.3 06:48:43 17° SSE 06:48:43 17° SSE 06:52:24 10° ESE visible
11 Aug 8.2 08:54:28 12° SW 09:01:00 30° S 09:05:43 10° ESE visible
